Wind_Speed
15 14 12 11 10 9 8 7 6 5 4 3 3 2 2 2 2 2 3 3 3 4 4 4 5 6 7 7 8 8 9 10 10 11 12 13 14 15 16 17 17 18 18
16 15 13 12 11 10 9 7 6 5 5 4 3 3 3 2 2 2 3 3 3 3 4 4 5 6 7 7 8 8 9 10 10 11 12 14 15 15 16 17 18 18 19
17 16 14 12 11 10 9 8 7 6 6 5 4 4 3 2 2 2 3 3 3 3 3 4 5 6 6 7 8 8 9 9 11 12 13 14 15 16 17 18 19 19 20
18 17 15 13 12 11 10 9 8 7 7 6 5 5 4 3 2 2 3 3 3 3 4 4 5 6 6 7 8 8 9 10 11 12 14 15 16 17 18 19 20 21 21
20 18 16 14 13 11 11 10 9 8 8 7 6 5 5 3 3 3 3 3 3 3 4 4 5 5 6 7 8 8 9 10 12 13 14 16 17 18 19 20 21 22 23
21 19 17 15 13 12 12 11 10 10 9 8 7 6 5 4 4 3 3 3 3 3 4 4 5 6 6 7 8 9 10 11 12 14 15 17 18 19 20 21 22 23 24
22 20 18 16 15 14 13 12 12 11 10 9 8 7 6 5 4 4 3 3 4 4 4 5 5 6 7 8 9 10 11 12 14 15 17 18 19 20 21 23 24 24 25
24 21 19 18 16 15 14 14 13 12 11 10 9 8 7 6 5 4 4 4 4 4 5 5 6 7 8 9 10 11 12 14 15 17 18 19 20 22 23 24 25 26 27
26 23 21 19 18 17 16 15 14 13 12 11 10 9 8 7 6 6 5 5 5 5 6 7 7 8 9 10 12 13 14 15 17 18 20 21 22 24 25 26 27 28 29
27 25 23 21 20 19 18 17 16 15 14 13 11 10 9 8 8 7 7 6 6 7 7 8 9 10 11 12 13 14 16 17 18 20 21 23 24 25 26 27 29 30 30
29 26 24 23 22 21 20 19 18 17 15 14 13 12 11 10 9 9 8 8 8 8 9 9 10 11 12 13 14 16 17 19 20 21 23 24 25 27 28 29 30 31 31
30 28 26 24 23 22 22 21 20 19 17 16 14 13 12 11 11 10 10 10 10 10 10 11 12 13 14 15 16 17 19 20 22 23 25 26 27 29 30 31 32 32 33
32 30 28 26 24 24 23 23 22 21 19 18 16 15 14 13 13 12 12 12 12 12 12 13 14 15 16 17 18 19 21 22 24 25 27 28 29 31 32 33 33 34 34
34 31 29 28 26 25 25 25 24 23 21 20 19 17 16 15 15 14 14 14 14 14 15 15 16 16 18 19 20 21 23 24 26 27 29 30 31 33 34 34 35 35 35
35 33 31 30 28 26 26 26 26 25 24 22 21 20 19 18 17 16 16 16 16 16 17 18 18 19 20 21 22 23 25 26 28 29 30 32 34 35 35 36 36 36 36
37 35 34 32 30 29 28 28 28 27 26 25 24 23 21 21 20 19 18 19 19 19 19 20 21 21 22 23 24 25 27 28 30 31 32 33 35 36 37 37 37 37 37
38 37 36 35 33 31 30 30 29 29 29 27 27 26 24 23 23 22 22 22 22 22 22 23 23 24 25 26 27 28 29 30 32 33 35 35 36 36 37 38 38 38 38
41 39 38 37 35 34 33 32 32 31 31 30 29 29 27 26 25 25 25 25 24 25 25 25 26 27 28 29 29 30 31 32 34 35 37 38 38 38 38 38 39 39 39
43 41 40 38 37 36 35 34 34 33 33 33 32 31 30 30 29 28 28 28 27 27 28 28 29 30 30 31 32 33 34 35 36 37 38 39 39 39 39 40 40 40 40
44 43 42 40 39 38 37 36 36 35 35 35 35 34 33 33 32 32 31 31 31 31 31 32 32 33 34 34 35 35 36 37 38 39 40 41 41 41 41 42 42 42 41
45 43 42 42 40 39 39 38 37 37 37 37 37 37 37 36 36 35 35 34 34 34 34 35 35 36 36 37 38 38 38 39 40 40 41 42 42 43 43 43 43 42 42
47 45 44 42 42 41 41 40 40 40 40 39 39 40 40 39 39 38 38 37 37 37 37 38 38 39 39 40 41 41 41 40 41 42 41 41 43 44 44 44 43 42 42
48 47 45 44 44 43 43 42 42 42 42 42 42 42 42 41 41 41 41 41 41 41 41 41 42 42 42 43 43 44 45 44 43 43 42 42 43 44 44 43 43 42 42
48 48 47 46 45 45 45 45 45 45 44 44 44 44 44 44 44 45 45 45 45 45 44 45 45 45 45 45 46 46 47 47 46 44 44 44 44 44 43 43 42 42 41
49 49 48 48 47 46 46 46 46 47 47 46 46 46 46 46 47 48 48 48 48 47 47 47 47 47 47 47 47 47 48 47 47 46 45 45 44 44 43 43 43 42 41
48 49 50 49 48 49 48 47 47 48 48 48 49 49 48 48 48 49 50 50 50 49 48 48 48 48 48 48 49 48 48 47 46 46 45 44 44 44 44 43 42 41 40
Wind_Direction
226 230 233 235 237 240 239 237 235 233 231 233 239 246 254 270 294 314 326 338 344 351 355 357 0 359 358 358 358 359 1 3 2 2 0 359 358 357 356 354 353 351 349
225 228 231 233 235 236 235 233 232 230 227 229 233 240 249 265 295 316 328 334 341 350 353 356 355 354 355 355 354 356 359 359 359 358 357 356 355 353 352 350 349 347 345
225 227 229 232 234 234 232 231 230 229 227 227 232 237 243 257 292 317 329 332 339 346 347 349 349 349 351 353 353 354 356 356 355 353 352 352 350 349 348 347 345 344 342
226 228 229 232 233 232 232 229 228 228 227 226 228 232 239 253 284 309 322 328 336 343 345 345 345 346 347 348 348 350 351 351 349 348 347 347 346 345 344 343 342 340 339
227 229 231 232 233 232 231 228 226 225 225 226 227 232 240 253 275 295 310 320 328 336 341 343 343 344 344 343 344 345 346 347 346 345 344 343 343 342 342 341 340 339 337
226 229 231 231 232 233 232 230 227 225 225 228 229 235 242 255 269 284 299 310 319 327 333 337 339 341 341 341 341 342 342 343 342 342 342 341 341 341 340 340 339 338 336
225 228 230 231 233 234 233 231 230 227 228 230 231 235 242 253 263 273 286 298 308 318 325 331 334 336 337 338 338 339 339 340 340 340 340 339 339 339 338 337 337 336 335
224 226 229 231 234 234 233 232 231 231 231 232 233 237 244 252 261 271 280 289 300 310 319 326 330 332 333 335 336 337 338 338 338 338 337 337 336 335 335 335 334 334 332
225 226 229 232 234 235 233 232 232 232 233 235 237 242 248 255 262 271 279 288 296 304 312 319 325 328 330 332 333 333 334 335 335 334 334 334 334 333 333 332 332 332 331
226 228 230 232 234 235 234 233 232 233 235 237 240 245 251 258 265 271 277 286 294 302 308 314 319 322 326 328 330 330 331 331 331 332 331 331 331 331 330 330 330 330 329
228 229 231 234 235 235 235 234 233 233 235 238 241 245 251 259 265 272 277 284 291 299 305 310 313 317 321 324 326 327 327 327 328 327 327 328 328 328 328 327 327 327 327
227 230 233 235 235 235 235 235 234 234 235 238 241 245 250 257 264 271 276 282 288 294 300 305 309 313 316 319 321 323 323 324 325 325 324 325 326 326 326 326 325 325 325
226 230 234 237 236 236 236 236 236 236 237 238 241 245 250 256 262 268 274 279 285 290 295 300 305 308 312 314 316 317 319 320 321 322 321 322 323 323 324 324 323 323 323
227 231 236 239 239 239 239 238 238 238 239 240 243 246 250 255 261 266 272 277 282 287 291 296 300 303 307 310 312 314 315 317 318 319 319 319 320 321 321 321 321 321 321
227 231 236 241 243 244 243 242 241 241 241 242 245 247 251 255 261 266 271 276 280 284 288 292 295 299 303 306 309 311 312 314 315 316 316 317 318 318 319 319 319 320 319
229 234 237 242 245 246 247 246 245 244 244 245 247 249 252 257 262 266 271 275 279 282 286 290 293 297 300 303 306 308 309 310 312 313 314 314 315 315 316 316 317 317 317
231 234 238 242 245 247 247 248 248 248 248 248 249 251 254 258 262 266 270 275 279 282 285 289 292 295 298 300 303 305 306 307 309 310 311 312 312 312 313 314 314 315 315
234 237 240 242 244 246 247 249 250 251 251 252 253 255 257 260 264 267 271 275 279 282 284 287 291 294 297 299 301 302 303 305 306 308 309 310 311 311 311 312 313 313 313
237 238 241 243 245 246 248 250 251 252 254 254 256 258 260 262 265 269 272 275 278 281 284 286 290 292 295 297 299 301 302 303 304 306 306 308 309 310 310 310 311 311 311
238 239 241 243 245 247 249 251 252 254 256 257 259 261 263 265 267 270 273 276 279 282 284 286 289 291 294 296 298 299 300 301 303 304 306 306 307 308 309 309 310 310 310
237 240 243 245 245 247 249 252 253 255 257 259 261 262 264 266 268 271 273 276 279 282 284 287 289 291 293 295 296 298 299 301 302 304 304 304 305 306 307 308 308 308 308
240 241 243 246 247 248 250 251 254 257 258 260 263 264 265 267 270 272 274 276 279 282 284 286 288 290 292 294 295 296 297 298 300 301 301 302 302 304 305 306 306 306 306
241 243 245 247 249 250 251 253 255 257 260 261 263 265 266 268 270 272 275 277 279 281 283 286 288 290 292 293 294 296 297 298 298 299 299 300 301 302 303 304 304 304 304
242 244 246 248 249 251 252 254 255 257 259 261 264 265 266 268 271 273 275 276 278 280 282 285 287 289 290 292 293 294 296 297 298 298 299 300 300 301 302 302 302 302 302
242 244 246 248 250 252 253 254 256 258 260 261 263 265 267 269 272 274 275 276 278 279 281 283 285 287 289 290 291 293 294 295 296 297 298 298 299 300 301 301 301 301 301
244 245 247 248 250 252 253 255 257 258 259 261 262 265 267 269 272 273 274 275 276 278 280 282 283 285 287 288 290 291 292 293 294 295 296 297 298 299 299 299 299 300 300
Height
5882 5883 5885 5886 5888 5889 5890 5891 5892 5893 5893 5894 5894 5895 5895 5895 5895 5895 5895 5895 5894 5894 5894 5893 5893 5892 5892 5891 5891 5890 5889 5889 5888 5887 5886 5885 5884 5883 5882 5880 5879 5877 5876
5880 5882 5883 5885 5886 5888 5889 5890 5891 5892 5893 5893 5894 5894 5895 5895 5895 5895 5894 5894 5894 5893 5893 5893 5892 5892 5891 5891 5890 5890 5889 5888 5887 5886 5886 5885 5883 5882 5881 5879 5878 5876 5875
5878 5880 5882 5883 5885 5887 5888 5889 5890 5891 5892 5893 5893 5894 5894 5894 5894 5894 5894 5893 5893 5893 5893 5892 5892 5892 5891 5890 5890 5889 5888 5888 5887 5886 5885 5884 5882 5881 5880 5878 5876 5875 5873
5875 5878 5880 5882 5883 5885 5886 5888 5889 5890 5891 5892 5892 5893 5893 5893 5893 5893 5893 5893 5892 5892 5892 5892 5891 5891 5890 5890 5889 5888 5888 5887 5886 5885 5884 5883 5881 5880 5878 5876 5875 5873 5871
5873 5875 5877 5880 5882 5883 5885 5886 5888 5889 5890 5891 5891 5892 5892 5892 5892 5892 5892 5892 5892 5891 5891 5891 5890 5890 5889 5889 5888 5888 5887 5886 5885 5884 5883 5881 5880 5878 5877 5875 5873 5871 5869
5870 5873 5875 5877 5880 5881 5883 5885 5886 5887 5888 5889 5890 5891 5891 5891 5891 5891 5891 5891 5891 5891 5890 5890 5889 5889 5888 5888 5887 5886 5885 5884 5883 5882 5881 5880 5878 5877 5875 5873 5871 5869 5867
5867 5870 5873 5875 5877 5879 5881 5883 5884 5885 5886 5888 5888 5889 5890 5890 5890 5890 5890 5890 5890 5889 5889 5889 5888 5888 5887 5887 5886 5885 5884 5883 5882 5881 5879 5878 5876 5875 5873 5871 5869 5867 5865
5864 5867 5870 5872 5875 5877 5879 5880 5882 5883 5884 5886 5887 5887 5888 5888 5889 5889 5889 5888 5888 5888 5888 5887 5887 5886 5886 5885 5884 5884 5883 5882 5880 5879 5878 5876 5874 5872 5871 5869 5867 5864 5862
5860 5864 5867 5870 5872 5874 5876 5878 5880 5881 5882 5883 5885 5885 5886 5887 5887 5887 5887 5887 5887 5886 5886 5886 5885 5885 5884 5884 5883 5882 5881 5880 5878 5877 5876 5874 5872 5870 5868 5866 5864 5861 5859
5857 5860 5864 5866 5869 5871 5873 5875 5877 5879 5880 5881 5882 5883 5884 5885 5885 5885 5885 5885 5885 5885 5884 5884 5883 5883 5882 5882 5881 5880 5879 5878 5876 5875 5873 5871 5869 5867 5865 5863 5860 5858 5855
5853 5857 5860 5863 5866 5868 5870 5872 5874 5876 5877 5879 5880 5881 5882 5882 5883 5883 5883 5883 5883 5882 5882 5882 5881 5881 5880 5880 5879 5878 5876 5875 5874 5872 5870 5868 5866 5864 5862 5859 5857 5854 5851
5848 5852 5856 5859 5862 5864 5867 5869 5871 5873 5875 5876 5877 5878 5879 5880 5881 5881 5881 5881 5881 5880 5880 5879 5879 5879 5878 5877 5876 5875 5874 5872 5871 5869 5867 5865 5863 5860 5858 5855 5852 5850 5847
5843 5848 5851 5855 5858 5861 5863 5866 5868 5870 5872 5873 5874 5875 5876 5877 5878 5878 5878 5878 5878 5878 5877 5877 5876 5876 5875 5874 5873 5872 5871 5869 5867 5866 5863 5861 5859 5856 5854 5851 5848 5845 5842
5839 5843 5847 5850 5854 5857 5859 5862 5864 5866 5868 5870 5871 5872 5873 5874 5875 5875 5875 5875 5875 5875 5874 5874 5874 5873 5872 5871 5870 5869 5867 5865 5863 5861 5859 5857 5854 5852 5849 5846 5843 5840 5837
5834 5838 5842 5846 5849 5852 5855 5858 5860 5862 5864 5866 5867 5868 5869 5870 5871 5872 5872 5872 5872 5872 5871 5871 5870 5869 5868 5868 5866 5865 5863 5861 5859 5857 5855 5852 5849 5846 5844 5841 5837 5834 5831
5829 5833 5837 5841 5844 5847 5850 5853 5855 5857 5860 5862 5863 5864 5865 5866 5867 5868 5868 5868 5868 5868 5867 5867 5866 5865 5864 5863 5862 5860 5859 5857 5854 5852 5850 5848 5845 5841 5838 5835 5832 5829 5825
5824 5828 5832 5835 5839 5842 5845 5848 5850 5852 5855 5857 5858 5859 5860 5861 5862 5863 5863 5863 5863 5863 5863 5862 5861 5860 5859 5858 5857 5855 5854 5851 5849 5847 5844 5842 5839 5836 5832 5829 5826 5822 5819
5818 5822 5826 5830 5833 5836 5839 5842 5845 5847 5849 5851 5853 5854 5855 5856 5857 5858 5858 5858 5858 5858 5857 5857 5856 5855 5854 5853 5851 5850 5848 5846 5844 5841 5838 5835 5832 5830 5826 5823 5820 5816 5812
5812 5816 5820 5824 5827 5830 5833 5836 5839 5841 5844 5845 5847 5849 5850 5851 5852 5852 5852 5852 5852 5852 5851 5851 5850 5849 5848 5847 5845 5844 5841 5839 5837 5834 5831 5828 5825 5822 5819 5816 5813 5809 5805
5806 5810 5814 5818 5821 5824 5827 5830 5833 5835 5837 5839 5841 5842 5844 5845 5845 5846 5846 5846 5846 5846 5845 5844 5843 5842 5841 5840 5838 5837 5835 5832 5830 5827 5824 5820 5817 5814 5811 5808 5805 5801 5798
5799 5804 5808 5811 5814 5818 5821 5824 5826 5828 5830 5832 5834 5836 5837 5838 5838 5839 5839 5839 5839 5839 5838 5837 5836 5835 5833 5832 5831 5829 5828 5825 5822 5819 5816 5813 5809 5806 5803 5800 5797 5793 5790
5793 5797 5801 5804 5807 5811 5814 5816 5819 5821 5823 5825 5827 5828 5829 5830 5831 5831 5831 5831 5831 5831 5830 5829 5828 5827 5825 5823 5822 5820 5820 5819 5815 5812 5808 5805 5801 5798 5795 5791 5788 5785 5781
5786 5790 5794 5797 5800 5803 5806 5808 5811 5813 5815 5817 5819 5820 5821 5822 5823 5823 5823 5823 5823 5822 5822 5821 5819 5818 5817 5815 5813 5811 5809 5808 5806 5804 5800 5797 5793 5790 5786 5783 5779 5776 5772
5778 5782 5786 5789 5792 5795 5798 5800 5802 5804 5807 5809 5810 5812 5812 5813 5814 5814 5814 5814 5814 5813 5813 5812 5810 5809 5808 5806 5804 5802 5799 5797 5795 5794 5791 5787 5784 5781 5777 5774 5770 5767 5764
5770 5774 5777 5781 5784 5787 5789 5791 5794 5796 5798 5799 5801 5802 5803 5804 5804 5804 5804 5804 5804 5804 5803 5802 5801 5799 5798 5796 5794 5792 5790 5787 5785 5783 5781 5778 5774 5771 5768 5764 5761 5757 5754
5762 5765 5769 5772 5775 5778 5780 5782 5784 5786 5788 5790 5791 5792 5793 5794 5795 5794 5794 5794 5794 5794 5793 5792 5791 5789 5788 5786 5784 5782 5780 5778 5776 5773 5771 5768 5765 5762 5759 5755 5751 5748 5745